sat.trackr.live / text

‹ back to catalog

STARLINK-4173

NORAD 53285 · 2022-086AV

PAYLOAD ACTIVE UNKNOWN

§ Identity

Operator
Country
US
Launch date
2022-07-24
Launch site
AFETR
Launch vehicle
Mass (kg)
RCS (m²)

Purposes: comms

External: N2YO · Heavens-Above · Gunter

§ Orbital elements

Epoch: 2026-09-19T22:33:41.520096Z

Period
93.79 min
Inclination
53.1617°
Eccentricity
0.0000997
Mean motion
15.35406140 rev/d
Perigee alt
459.0 km
Apogee alt
460.4 km
Semi-major
6,837.9 km
B*
2.3537e-5
RAAN
15.9947°
Arg perigee
81.0059°
Mean anomaly
279.1056°
Rev number
23,073

§ Raw data

STARLINK-41731 53285U 22086AV  26262.94006389  .00000441  00000+0  23537-4 0  99902 53285  53.1617  15.9947 0000997  81.0059 279.1056 15.35406140230735

JSON: /api/v1/satellites/53285 · /tle

For live sub-satellite position, see the globe view (requires WebGL).

§ Visibility from observer

Set your observer location to see the next 7 days of passes ≥ 10°. The values pass through the URL so the page stays shareable.

No JS? Fill the form by hand. The geolocation button needs JavaScript.